Cloud_Cover
0 0 0 0 0 0 0 0 0 0 0 0 0 0 0 0 0 0 0 0 0 0
0 0 0 0 0 0 0 0 0 0 0 0 0 0 0 0 0 0 0 0 0 0
0 0 0 0 0 0 0 0 0 0 0 0 0 0 0 0 0 0 0 0 0 0
0 0 0 0 0 0 0 0 0 0 0 0 0 0 0 0 0 0 0 0 0 0
0 0 0 0 0 0 0 0 0 0 0 0 0 0 0 0 0 0 0 0 0 0
0 0 0 0 0 0 0 0 0 0 0 0 0 0 0 0 0 0 0 0 0 0
0 0 0 0 0 0 0 0 0 0 0 0 0 0 0 0 0 0 0 0 0 0
0 0 5 0 0 0 0 0 0 0 0 0 0 0 0 0 0 0 0 0 0 0
1 4 3 0 2 0 0 0 0 0 0 0 0 0 0 0 0 0 0 2 4 2
58 0 0 4 5 5 1 0 0 0 0 2 3 5 0 0 0 3 5 0 0 5
100 19 1 0 5 5 92 18 5 5 5 5 5 5 5 5 5 5 5 5 5 5
100 70 5 5 5 5 5 78 99 31 93 6 5 5 5 5 9 9 5 5 5 5
100 99 18 5 22 5 5 19 100 96 43 5 5 5 5 16 53 32 5 5 5 1
100 100 66 78 68 31 23 98 12 5 7 5 5 5 5 12 19 97 35 5 4 0